SCP
0 0 0 0 0 0 0 0 0 0 0 0 0 0 0 0 0 0 0 0 0 0
0 0 0 0 0 0 0 0 0 0 0 0 0 0 0 0 0 0 0 0 0 0
0 0 0 0 0 0 0 0 0 0 0 0 0 0 0 0 0 0 0 0 0 0
0 0 0 0 0 0 0 0 0 0 0 0 0 0 0 0 0 0 0 0 0 0
0 0 0 0 0 0 0 0 0 0 0 0 0 0 0 0 0 0 0 0 0 0
0 0 0 0 0 0 0 0 0 0 0 0 0 0 0 0 0 0 0 0 0 0
0 0 0 0 0 0 0 0 0 0 0 0 0 0 0 0 0 0 0 0 0 0
0 0 0 0 0 0 0 0 0 0 0 0 0 0 0 0 0 0 0 0 0 0
0 0 0 0 0 0 0 0 0 0 0 0 0 0 0 0 0 0 0 0 0 0
0 0 0 0 0 0 0 0 0 0 0 0 0 -0 0 0 0 0 0 0 0 0
0 0 0 0 0 0 0 0 0 0 0 0 0 -0 0 0 0 0 0 0 0 0
0 0 0 0 0 0 0 0 0 0 0 0 0 0 0 0 0 0 0 0 0 0
0 0 0 0 0 0 0 0 0 0 0 0 0 -0 0 -0 -0 0 0 0 0 0
0 0 0 0 0 0 0 0 0 0 0 0 0 -0 0 0 0 0 0 0 0 0
Wind_Speed_500mb
39 38 37 37 40 43 44 44 44 45 49 52 53 50 47 44 42 39 37 40 40 44
40 38 39 41 43 44 45 44 42 45 49 51 51 47 44 44 42 39 40 41 44 46
40 40 42 45 44 45 44 43 42 45 47 49 46 41 40 40 38 42 45 46 46 50
44 43 47 47 46 45 44 42 41 44 45 44 40 38 39 39 38 37 38 38 39 42
48 46 51 50 47 46 43 40 40 42 42 39 36 35 35 36 34 32 31 34 40 41
55 62 59 53 49 46 43 39 39 39 38 35 33 33 31 31 28 26 33 35 38 44
79 73 69 56 51 46 43 40 39 38 36 32 30 28 26 27 25 27 31 34 34 37
81 80 75 64 54 46 44 41 39 36 34 30 27 26 25 28 31 32 33 33 37 40
73 78 80 68 55 47 44 40 37 34 32 27 22 20 26 33 38 39 39 38 37 40
69 76 82 70 56 49 44 40 35 33 29 22 16 23 28 32 36 36 35 38 41 44
58 61 73 67 57 49 44 38 34 32 28 22 19 24 26 28 27 29 33 37 39 42
53 54 63 65 55 47 43 39 35 32 31 26 23 23 21 23 25 30 30 31 34 39
54 62 66 60 52 47 43 39 37 34 33 30 25 21 18 20 23 29 29 29 30 34
45 58 62 58 52 50 44 42 39 36 34 31 28 20 16 17 20 27 28 32 30 32
Wind_Direction_500mb
281 278 276 281 287 292 295 298 300 305 310 312 310 306 302 301 300 298 295 294 289 285
281 279 280 283 287 291 294 297 299 306 313 314 310 306 301 297 296 297 296 292 290 287
274 274 277 280 285 289 291 293 300 308 312 312 310 307 304 300 293 288 286 286 287 284
272 273 275 277 282 286 287 290 300 306 310 311 310 310 308 304 300 296 295 296 296 294
269 270 274 271 275 281 284 286 296 304 309 308 310 312 310 309 310 307 307 307 303 299
266 279 274 266 268 276 281 284 292 299 304 302 307 313 315 315 314 311 307 304 301 301
263 273 267 259 261 269 276 278 287 294 299 297 304 314 317 320 313 308 314 311 309 307
259 259 256 251 253 261 269 272 279 288 294 291 299 308 317 316 312 314 311 307 306 304
265 252 245 244 244 253 262 266 273 282 288 284 292 308 313 311 311 314 317 315 315 315
271 250 237 235 237 246 255 258 265 273 274 267 283 308 311 309 309 313 321 325 324 323
274 237 230 228 233 241 248 252 257 260 254 243 279 305 310 316 317 330 335 327 324 325
255 231 224 229 233 239 244 245 248 248 243 245 271 299 304 317 335 341 334 327 329 326
248 239 233 233 234 237 240 240 241 241 238 249 265 283 295 314 337 330 333 336 334 328
252 241 235 235 234 236 237 237 238 237 238 248 263 270 287 309 334 329 336 339 342 342
Wind_Speed_850mb
39 38 37 37 40 43 44 44 44 45 49 52 53 50 47 44 42 39 37 40 40 44
40 38 39 41 43 44 45 44 42 45 49 51 51 47 44 44 42 39 40 41 44 46
40 40 42 45 44 45 44 43 42 45 47 49 46 41 40 40 38 42 45 46 46 50
44 43 47 47 46 45 44 42 41 44 45 44 40 38 39 39 38 37 38 38 39 42
48 46 51 50 47 46 43 40 40 42 42 39 36 35 35 36 34 32 31 34 40 41
55 62 59 53 49 46 43 39 39 39 38 35 33 33 31 31 28 26 33 35 38 44
79 73 69 56 51 46 43 40 39 38 36 32 30 28 26 27 25 27 31 34 34 37
81 80 75 64 54 46 44 41 39 36 34 30 27 26 25 28 31 32 33 33 37 40
73 78 80 68 55 47 44 40 37 34 32 27 22 20 26 33 38 39 39 38 37 40
69 76 82 70 56 49 44 40 35 33 29 22 16 23 28 32 36 36 35 38 41 44
58 61 73 67 57 49 44 38 34 32 28 22 19 24 26 28 27 29 33 37 39 42
53 54 63 65 55 47 43 39 35 32 31 26 23 23 21 23 25 30 30 31 34 39
54 62 66 60 52 47 43 39 37 34 33 30 25 21 18 20 23 29 29 29 30 34
45 58 62 58 52 50 44 42 39 36 34 31 28 20 16 17 20 27 28 32 30 32
Wind_Direction_850mb
281 278 276 281 287 292 295 298 300 305 310 312 310 306 302 301 300 298 295 294 289 285
281 279 280 283 287 291 294 297 299 306 313 314 310 306 301 297 296 297 296 292 290 287
274 274 277 280 285 289 291 293 300 308 312 312 310 307 304 300 293 288 286 286 287 284
272 273 275 277 282 286 287 290 300 306 310 311 310 310 308 304 300 296 295 296 296 294
269 270 274 271 275 281 284 286 296 304 309 308 310 312 310 309 310 307 307 307 303 299
266 279 274 266 268 276 281 284 292 299 304 302 307 313 315 315 314 311 307 304 301 301
263 273 267 259 261 269 276 278 287 294 299 297 304 314 317 320 313 308 314 311 309 307
259 259 256 251 253 261 269 272 279 288 294 291 299 308 317 316 312 314 311 307 306 304
265 252 245 244 244 253 262 266 273 282 288 284 292 308 313 311 311 314 317 315 315 315
271 250 237 235 237 246 255 258 265 273 274 267 283 308 311 309 309 313 321 325 324 323
274 237 230 228 233 241 248 252 257 260 254 243 279 305 310 316 317 330 335 327 324 325
255 231 224 229 233 239 244 245 248 248 243 245 271 299 304 317 335 341 334 327 329 326
248 239 233 233 234 237 240 240 241 241 238 249 265 283 295 314 337 330 333 336 334 328
252 241 235 235 234 236 237 237 238 237 238 248 263 270 287 309 334 329 336 339 342 342